Regional Weather Roundup
Issued by NWS

Home | Current Version | Previous Version | Text Only | Print | Product List | Glossary On
Versions: 1 2 3 4 5 6 7 8 9 10 11 12 13 14 15 16 17 18 19 20 21 22 23 24 25 26 27 28 29 30 31 32 33 34 35 36 37 38 39 40 41 42 43 44 45 46 47 48 49 50
049
ASUS43 KDTX 222310
RWRMI
MICHIGAN HOURLY REGIONAL WEATHER ROUNDUP
NATIONAL WEATHER SERVICE DETROIT/PONTIAC MI
700 PM EDT SUN APR 22 2018

NOTE: "FAIR" INDICATES FEW OR NO CLOUDS BELOW 12,000 FEET WITH NO
SIGNIFICANT WEATHER AND/OR OBSTRUCTION TO VISIBILITY.

MIZ047>049-052>055-059>063-066>070-074>076-081>083-230000-
SOUTHEAST LOWER MICHIGAN

CITY           SKY/WX    TMP DP  RH WIND       PRES   REMARKS
ADRIAN         FAIR      56  23  27 SE14      30.31S
ALMA           FAIR      60  25  26 NE9       30.32S
ANN ARBOR      FAIR      59  24  26 NE8G18    30.31F
BAD AXE        FAIR      59   5  11 E6        30.36F
CARO           FAIR      59  18  20 E6        30.34S
DETROIT CITY   FAIR      58  23  26 E13       30.32F
DETROIT        FAIR      60  20  21 E10       30.32F
FLINT          FAIR      60  27  28 E10       30.32S
GROSSE ILE     FAIR      58  24  27 E6        30.31F
HILLSDALE      FAIR      57  23  26 E14       30.28F
HOWELL         FAIR      59  18  20 E9        30.31F

CITY           SKY/WX    TMP DP  RH WIND       PRES   REMARKS
JACKSON        FAIR      60  23  24 NE13      30.29F
LAMBERTVILLE   FAIR      56  19  23 E12G21    30.31F
LANSING        FAIR      62  25  24 E12       30.31S
LAPEER         FAIR      59  23  25 E5        30.33S
MASON          FAIR      62  12  14 E8        30.30F
MONROE         FAIR      54  19  24 E8        30.31F
MT. CLEMENS    MOSUNNY   58  27  31 SE7       30.36S
PONTIAC        PTSUNNY   59  24  26 SE9       30.31S
PORT HOPE        N/A     42  32  67 CALM      30.36F
PORT HURON     FAIR      55  23  28 NE9       30.35S
TRI CITIES     FAIR      56  29  35 NE14      30.34F
MIDLAND        FAIR      56  30  37 E8        30.34R
TROY           FAIR      61  20  21 E9        30.34F
SAGINAW HB     FAIR      55  30  38 NE14      30.33S
$$
MIZ043>046-050>051-056>058-064>065-071>073-077>080-230000-
SOUTHWEST LOWER MICHIGAN

CITY           SKY/WX    TMP DP  RH WIND       PRES   REMARKS
BATTLE CREEK   FAIR      62  21  20 SE13G20   30.28S
BENTON HARBOR  FAIR      64  23  21 E10       30.25S
BIG RAPIDS     FAIR      61  12  15 SE14      30.30S
COLDWATER      FAIR      59  24  25 E12G17    30.28S
FREMONT        FAIR      62   4   9 SE10      30.29S
HOLLAND        FAIR      62  27  26 E12       30.28F
GRAND RAPIDS   FAIR      62  25  24 E12       30.29S
IONIA          FAIR      61  23  23 NE9       30.29F
KALAMAZOO      FAIR      64  21  19 E9        30.27F
LUDINGTON      FAIR      55  24  29 N7        30.31F
MARSHALL       FAIR      61  19  19 SE9       30.28S
MOUNT PLEASANT FAIR      61  16  17 CALM      30.32S
MUSKEGON       FAIR      65  25  22 VRB5      30.28F
SOUTH HAVEN    FAIR      64  17  16 SE7       30.25F
$$
MIZ016>042-230000-
NORTHERN LOWER MICHIGAN

CITY           SKY/WX    TMP DP  RH WIND       PRES   REMARKS
ALPENA         FAIR      50  21  32 SE10      30.37F
BEAVER ISLAND  FAIR      58  13  16 CALM      30.33F
BELLAIRE       FAIR      59  17  19 N5        30.31F
CADILLAC       FAIR      61  24  25 E12       30.29S
CHARLEVOIX     FAIR      48  25  39 CALM      30.35F
FRANKFORT      FAIR      55  23  28 N8        30.32S
GAYLORD        FAIR      57  15  19 E5        30.31F
GRAYLING       FAIR      57  22  25 SE9       30.30F
HARBOR SPRINGS FAIR      51  25  36 CALM      30.32F
HOUGHTON LAKE  FAIR      60  20  21 SE8       30.32S
MANISTEE       FAIR      53  23  31 NW7       30.31F
OSCODA         FAIR      47  25  42 E5        30.38F
PELLSTON       FAIR      57  20  23 E10       30.33F
ROGERS CITY    FAIR      52  29  41 SE6       30.37F
TRAVERSE CITY  FAIR      52  31  44 W6        30.30F
$$
MIZ007>008-015-230000-
EASTERN UPPER MICHIGAN

CITY           SKY/WX    TMP DP  RH WIND       PRES   REMARKS
KINROSS        FAIR      58  15  18 VRB3      30.33F
MACKINAC ISLAN FAIR      51  11  19 E8        30.34F
NEWBERRY       FAIR      52  15  23 S6        30.31F
S. S. MARIE    FAIR      58  19  22 SE7       30.32F
MUNISING         N/A     58  20  22 S12       30.28S
$$
MIZ004>006-011>014-085-230000-
CENTRAL UPPER MICHIGAN

CITY           SKY/WX    TMP DP  RH WIND       PRES   REMARKS
MANISTIQUE     FAIR      49   7  18 S5        30.33S
ESCANABA       FAIR      51  18  27 SE8       30.33S
MENOMINEE      FAIR      56  22  26 SE10      30.32F
SAWYER-GWINN   SUNNY     55  21  26 S13       30.28S
$$
MIZ001>003-009>011-084-230000-
WESTERN UPPER MICHIGAN

CITY           SKY/WX    TMP DP  RH WIND       PRES   REMARKS
IRON MOUNTAIN  FAIR      60  21  22 S12       30.27S
HOUGHTON       FAIR      52  14  22 E3        30.27S
COPPER HARBOR    N/A     54  16  22 CALM      30.27S
IRONWOOD       FAIR      58  24  27 N7        30.25F
$$

ABBREVIATIONS USED IN REMARKS
   TC - TEMPERATURE IN CELSIUS
  WCI - WIND CHILL INDEX
   HX - HEAT INDEX
  VSB - VISIBILITY





USA.gov is the U.S. government's official web portal to all federal, state and local government web resources and services.